Home > Weather > Toronto > Past weeks

Flag for Canada Past Weather in Toronto, Ontario, Canada — Yesterday and Last 2 Weeks

Now
79 °F

Broken clouds.


Feels Like: 79 °F
Forecast: N/A
Wind: 13 mph from East

Location: Toronto Pearson International Airport

Current Time: Jul 30, 2016 at 4:45:43 PM

Latest Report: Jul 30, 2016 at 4:00 PM


Visibility: 15 mi

Pressure: 30.02 "Hg

Humidity: 45%

Dew Point: 55 °F

Location of TorontoLocation

Past Weather in Toronto — Graph

°F

Toronto Temperature Yesterday

Maximum temperature yesterday: 81 °F (at 3:00 PM)
Minimum temperature yesterday: 68 °F (at 5:00 AM)
Average temperature yesterday: 73 °F

High & Low Weather Summary for the Past Weeks

 TemperatureHumidityPressure
High95 °F (Jul 22, 3:00 PM)94% (Jul 25, 6:52 AM)30.28 "Hg (Jul 25, 6:52 AM)
Low57 °F (Jul 17, 5:00 AM)26% (Jul 22, 6:00 PM)29.81 "Hg (Jul 25, 3:00 PM)
Average75 °F56%29.99 "Hg
* Reported Jul 15 3:00 PM — Jul 30 3:00 PM, Toronto, Weather by CustomWeather, © 2016

Note: Actual official high and low records may vary slightly from our data, if they occured in-between our weather recording intervals... More about our weather records

Advertising

Toronto Weather History for the Previous 24 Hours

Scroll right to see more
 ConditionsComfort  
Time TempWeatherWind HumidityBarometerVisibility
3:00 PM
Sat, Jul 30
79 °FScattered clouds.15 mph45%30.03 "Hg15 mi
2:00 PM79 °FBroken clouds.10 mph48%30.04 "Hg15 mi
1:00 PM75 °FScattered clouds.12 mph50%30.05 "Hg15 mi
12:00 PM75 °FPartly sunny.10 mph50%30.06 "Hg15 mi
11:00 AM70 °FScattered showers. Broken clouds.8 mph64%30.06 "Hg15 mi
10:00 AM68 °FLight rain. More clouds than sun.5 mph69%30.06 "Hg15 mi
9:45 AM66 °FScattered showers. More clouds than sun.8 mph73%30.06 "Hg15 mi
9:00 AM66 °FLight rain. Mostly cloudy.7 mph68%30.06 "Hg15 mi
8:00 AM66 °FLight rain. More clouds than sun.7 mph68%30.05 "Hg15 mi
7:00 AM68 °FLight rain. Overcast.7 mph60%30.05 "Hg15 mi
6:00 AM68 °FPartly cloudy.7 mph56%30.02 "Hg15 mi
5:00 AM68 °FPartly cloudy.6 mph56%30.02 "Hg15 mi
4:00 AM68 °FPartly cloudy.7 mph56%30.02 "Hg15 mi
3:00 AM68 °FPartly cloudy.10 mph56%30.02 "Hg15 mi
2:00 AM70 °FPassing clouds.9 mph57%30.02 "Hg15 mi
1:00 AM70 °FPassing clouds.12 mph60%30.01 "Hg15 mi
12:00 AM72 °FPartly cloudy.14 mph57%30.01 "Hg15 mi
11:00 PM
Fri, Jul 29
72 °FPartly cloudy.10 mph61%30.01 "Hg15 mi
10:00 PM73 °FPassing clouds.9 mph53%29.99 "Hg15 mi
9:00 PM75 °FPartly sunny.9 mph50%29.98 "Hg15 mi
8:00 PM75 °FBroken clouds.2 mph57%29.97 "Hg15 mi
7:00 PM79 °FPartly sunny.7 mph48%29.96 "Hg15 mi
6:00 PM79 °FBroken clouds.9 mph48%29.95 "Hg15 mi
5:00 PM81 °FBroken clouds.6 mph48%29.95 "Hg15 mi
4:00 PM81 °FPartly sunny.10 mph48%29.95 "Hg15 mi
Weather by CustomWeather, © 2016

See weather overviewHow to use our weather pages